Regional Weather Roundup
Issued by NWS Wilmington, NC

Home | Current Version | Previous Version | Text Only | Print | Product List | Glossary On
Versions: 1 2 3 4 5 6 7 8 9 10 11 12 13 14 15 16 17 18 19 20 21 22 23 24 25 26 27
000
ASUS42 KILM 261213
RWRILM
RWRILM
REGIONAL HOURLY WEATHER ROUNDUP
NATIONAL WEATHER SERVICE WILMINGTON NC
700 AM EST SUN FEB 26 2017

NOTE: "FAIR" INDICATES FEW OR NO CLOUDS BELOW 12,000 FEET WITH NO
SIGNIFICANT WEATHER AND/OR OBSTRUCTIONS TO VISIBILITY.

...............WFO WILMINGTON COUNTY WARNING AREA...............

......COASTAL NC AND SC COUNTIES......

CITY           SKY/WX    TMP DP  RH WIND       PRES   REMARKS
WILMINGTON     CLEAR     41  23  48 N7        30.10R
N MYRTLE BEACH CLEAR     44  27  51 N3        30.10R
MYRTLE BEACH   CLEAR     46  25  42 NW8       30.11R

......INLAND NC AND SC COUNTIES.......

CITY           SKY/WX    TMP DP  RH WIND       PRES   REMARKS
LUMBERTON      CLEAR     40  22  48 NW6       30.12R
ELIZABETHTOWN  CLEAR     42  21  44 CALM      30.11R
WHITEVILLE     CLEAR     43  21  42 CALM      30.11R
FLORENCE       CLEAR     40  20  44 N7        30.13R
DARLINGTON     CLEAR     38  22  52 N3        30.14R
KINGSTREE      FAIR      34  27  75 CALM      30.12R
HARTSVILLE     FAIR      36  19  51 N3        30.12R
BENNETTSVILLE  NOT AVBL
CONWAY         FAIR      34  30  86 CALM      30.12R HAZE
GEORGETOWN     FAIR      43  27  52 CALM      30.12R
MARION         FAIR      39  25  56 N3        30.12R

....................REST OF NORTH CAROLINA......................

.........EASTERN NC.........

CITY           SKY/WX    TMP DP  RH WIND       PRES   REMARKS
CAPE HATTERAS  CLEAR     50  32  50 NW10G18   30.03R
JACKSONVILLE   CLEAR     42  22  44 N3        30.11R
MOREHEAD CITY  CLEAR     47  26  44 N14       30.07R
KENANSVILLE    CLEAR     39  21  48 NW3       30.11R
NEW BERN       CLEAR     43  23  45 NW10      30.09R
ELIZABETH CITY CLEAR     42  25  50 NW9       30.05R

.........CENTRAL NC.........

CITY           SKY/WX    TMP DP  RH WIND       PRES   REMARKS
RALEIGH DURHAM CLEAR     37  18  46 VRB5      30.11R WCI  33
ROCKY MOUNT    CLEAR     38  22  52 NW6       30.10R WCI  33
ROANOKE RAPIDS NOT AVBL
FAYETTEVILLE     N/A    N/A N/A N/A MISG      30.10R
HOFFMAN        CLEAR     34  21  60 NW3       30.12R

.........WESTERN NC.........

CITY           SKY/WX    TMP DP  RH WIND       PRES   REMARKS
CHARLOTTE      CLEAR     34  17  50 NW5       30.11R WCI  30
GREENSBORO     CLEAR     34  17  50 N6        30.10R WCI  29
HICKORY        NOT AVBL
BOONE          NOT AVBL
ASHEVILLE      NOT AVBL

.....................REST OF SOUTH CAROLINA.....................

.........EASTERN SC.........

CITY           SKY/WX    TMP DP  RH WIND       PRES   REMARKS
CHARLESTON     CLEAR     43  25  49 NW5       30.12R
BEAUFORT MCAS  CLEAR     43  28  55 W5        30.14R
HILTON HEAD    CLEAR     46  25  42 W6        30.14R

.........CENTRAL SC.........

CITY           SKY/WX    TMP DP  RH WIND       PRES   REMARKS
COLUMBIA       CLEAR     36  26  67 CALM      30.13R
ORANGEBURG     CLEAR     42  26  53 NW3       30.13R
SUMTER SHAW    CLEAR     38  20  47 NW6       30.11R WCI  34

.........WESTERN SC.........

CITY           SKY/WX    TMP DP  RH WIND       PRES   REMARKS
GREENVILLE     NOT AVBL
ROCK HILL      CLEAR     32  20  61 CALM      30.12R
ANDERSON       CLEAR     32  19  58 CALM      30.12R
CLEMSON        NOT AVBL
GREENWOOD      CLEAR     29  22  75 CALM      30.15R


...................COASTAL AND OFFSHORE REPORTS..................

................LOCAL PIERS AND NC RESERVE................


STATION/POSITION TIME  SKY/WX   TEMP    WIND        PRES    VSBY
                                AIR SEA DIR/SP/G
                 (UTC)          (F)     (DEG/KT/KT) (MB)    (MI)
JOHNY MRCER PIER 1148            47 59  320/  6/  9 1017.8R
NC RESRV MASNBRO 1045            46     210/  1     1016.0
OCEAN CREST PIER NOT AVBL
SPRINGMAID  PIER 1142                               1018.6R


................COASTAL AND OFFSHORE BUOYS................


STATION/POSITION TIME  SKY/WX   TEMP    WIND        PRES    VSBY
                                AIR SEA DIR/SP/G
                 (UTC)          (F)     (DEG/KT/KT) (MB)    (MI)
DIMNDSHOAL 41025 1150            54 72  330/ 19/ 25 1016.1R
WVE H/P(F/S)=  7/10 SWL H/P/D(F/S/D)=  3/150/10

CAPE LOOKOUT     1200            49     330/ 19/ 21 1017.7R
ONSLOW BAY 41036 NOT AVBL
ONSLOW BAY 41064 1108            55     360/ 17/ 23 1016.8R
ONSLOW BAY 41159 1143               65                N/A
WVE H/P(F/S)=  6/ 5 SWL H/P/D(F/S/D)=  2/120/11

MASNBO INL 41110 1129               58                N/A
WVE H/P(F/S)=  3/ 9 SWL H/P/D(F/S/D)=  2/130/11

WILM HARBR 41108 1147               58                N/A
WVE H/P(F/S)=  4/11 SWL H/P/D(F/S/D)=  2/140/11

27SE WRITB 41037 1108            54 62  340/ 17/ 23 1016.2R
FRYING PAN 41013 1150            57 69  340/ 17/ 23 1018.3R
WVE H/P(F/S)=  5/ 5 SWL H/P/D(F/S/D)=  2/120/10

SUNST NRSH 41024 1108            51 60  340/ 12/ 16 1018.1R
CAPRS NRSH 41029 1108            53 60  330/ 14/ 17 1018.4R
EDISTO     41004 1050            59 69  320/ 19/ 21 1017.1
WVE H/P(F/S)=  6/ 5 SWL H/P/D(F/S/D)=  3/110/10



..........OFFSHORE BUOYS BEYOND 100 NM OFFSHORE...........
.....IN A TRIANGLE---HAT TO BERMUDA TO BAHAMAS TO HAT.....


STATION/POSITION TIME  SKY/WX   TEMP    WIND        PRES    VSBY
                                AIR SEA DIR/SP/G
                 (UTC)          (F)     (DEG/KT/KT) (MB)    (MI)
150E HAT   41001 NOT AVBL
W BERMUDA  41048 1150            70 69  220/ 14/ 17 1015.3R
WVE H/P(F/S)=  6/ 8 SWL H/P/D(F/S/D)=  5/130/ 8

ATLANTIC S 41049 1150            73 72  160/  6/  8 1020.6R
WVE H/P(F/S)=  4/ 8 SWL H/P/D(F/S/D)=  5/110/ 8

E BAHAMAS  41046 1200            78 77  110/ 10/ 14 1017.5
NE BAHAMAS 41047 1150            72 73  280/  6/  8 1018.3R
WVE H/P(F/S)=  5/11 SWL H/P/D(F/S/D)=  5/ 80/11

120E CANVRL41010 NOT AVBL

END




USA.gov is the U.S. government's official web portal to all federal, state and local government web resources and services.